sat.trackr.live / text

‹ back to catalog

TAIJING-4 03

NORAD 58823 · 2024-016D

PAYLOAD ACTIVE UNKNOWN

§ Identity

Operator
Country
PRC
Launch date
2024-01-23
Launch site
JSC
Launch vehicle
Mass (kg)
RCS (m²)

External: N2YO · Heavens-Above · Gunter

§ Orbital elements

Epoch: 2026-09-21T23:07:22.683936Z

Period
92.31 min
Inclination
97.4279°
Eccentricity
0.0005274
Mean motion
15.59893149 rev/d
Perigee alt
384.4 km
Apogee alt
391.5 km
Semi-major
6,766.1 km
B*
5.0851e-4
RAAN
358.8213°
Arg perigee
82.1976°
Mean anomaly
277.9879°
Rev number
14,882

§ Raw data

TAIJING-4 031 58823U 24016D   26264.96345699  .00040959  00000+0  50851-3 0  99982 58823  97.4279 358.8213 0005274  82.1976 277.9879 15.59893149148823

JSON: /api/v1/satellites/58823 · /tle

For live sub-satellite position, see the globe view (requires WebGL).

§ Visibility from observer

Set your observer location to see the next 7 days of passes ≥ 10°. The values pass through the URL so the page stays shareable.

No JS? Fill the form by hand. The geolocation button needs JavaScript.